Wetterdaten vom Freitag, 21. September 2018

Temperatur Taupunkt Windchill Luftfeuchte Luftdruck Solarstrahlung Regen ET
(Verdunstung von Wasser)
Wind
Max 16.1 °C
00:00
10.5 °C
00:00
16 °C
00:00
84%
07:15
1000.8 hPa
01:00
36 W/m²
07:40
0 km/h
00:00 km/h
Durchschnitt 13.4 °C 9.5 °C 13.4 °C 78% 998.8 hPa 18 W/m² 0 mm 0.152 mm 0 km/h
Min 11.7 °C
07:25
8.8 °C
06:35
11.8 °C
07:00
70%
00:00
997.4 hPa
06:25
0 km/h (Böe)
00:00 km/h
Zeit
00:00 16.0 °C 10.5 °C 16.0 °C 70% 1000.4 hPa 0 W/m² 0.0 mm 0.000 mm 0.0 km/h
00:05 15.9 °C 10.4 °C 15.9 °C 70% 1000.4 hPa 0 W/m² 0.0 mm 0.000 mm 0.0 km/h
00:10 15.8 °C 10.3 °C 15.8 °C 70% 1000.4 hPa 0 W/m² 0.0 mm 0.000 mm 0.0 km/h
00:15 15.8 °C 10.3 °C 15.8 °C 70% 1000.6 hPa 0 W/m² 0.0 mm 0.000 mm 0.0 km/h
00:20 15.7 °C 10.2 °C 15.7 °C 70% 1000.6 hPa 0 W/m² 0.0 mm 0.000 mm 0.0 km/h
00:25 15.6 °C 10.1 °C 15.6 °C 70% 1000.3 hPa 0 W/m² 0.0 mm 0.000 mm 0.0 km/h
00:30 15.5 °C 10.1 °C 15.5 °C 70% 1000.4 hPa 0 W/m² 0.0 mm 0.000 mm 0.0 km/h
00:35 15.4 °C 10.0 °C 15.4 °C 70% 1000.4 hPa 0 W/m² 0.0 mm 0.000 mm 0.0 km/h
00:40 15.3 °C 10.1 °C 15.3 °C 71% 1000.2 hPa 0 W/m² 0.0 mm 0.000 mm 0.0 km/h
00:45 15.2 °C 10.0 °C 15.2 °C 71% 1000.3 hPa 0 W/m² 0.0 mm 0.000 mm 0.0 km/h
00:50 15.2 °C 10.2 °C 15.2 °C 72% 1000.3 hPa 0 W/m² 0.0 mm 0.000 mm 0.0 km/h
00:55 15.1 °C 10.1 °C 15.1 °C 72% 1000.2 hPa 0 W/m² 0.0 mm 0.000 mm 0.0 km/h
01:00 15.1 °C 10.3 °C 15.1 °C 73% 1000.8 hPa 0 W/m² 0.0 mm 0.025 mm 0.0 km/h
01:05 15.0 °C 10.0 °C 15.0 °C 72% 1000.0 hPa 0 W/m² 0.0 mm 0.000 mm 0.0 km/h
01:10 14.9 °C 10.1 °C 14.9 °C 73% 1000.0 hPa 0 W/m² 0.0 mm 0.000 mm 0.0 km/h
01:15 14.8 °C 10.0 °C 14.8 °C 73% 999.9 hPa 0 W/m² 0.0 mm 0.000 mm 0.0 km/h
01:20 14.7 °C 10.1 °C 14.7 °C 74% 1000.0 hPa 0 W/m² 0.0 mm 0.000 mm 0.0 km/h
01:25 14.6 °C 10.0 °C 14.6 °C 74% 999.9 hPa 0 W/m² 0.0 mm 0.000 mm 0.0 km/h
01:30 14.6 °C 10.2 °C 14.6 °C 75% 999.8 hPa 0 W/m² 0.0 mm 0.000 mm 0.0 km/h
01:35 14.5 °C 10.1 °C 14.5 °C 75% 999.7 hPa 0 W/m² 0.0 mm 0.000 mm 0.0 km/h
01:40 14.4 °C 10.0 °C 14.4 °C 75% 999.7 hPa 0 W/m² 0.0 mm 0.000 mm 0.0 km/h
01:45 14.4 °C 10.0 °C 14.4 °C 75% 999.5 hPa 0 W/m² 0.0 mm 0.000 mm 0.0 km/h
01:50 14.3 °C 9.9 °C 14.3 °C 75% 999.5 hPa 0 W/m² 0.0 mm 0.000 mm 0.0 km/h
01:55 14.3 °C 9.9 °C 14.3 °C 75% 999.7 hPa 0 W/m² 0.0 mm 0.000 mm 0.0 km/h
02:00 14.3 °C 9.9 °C 14.3 °C 75% 999.5 hPa 0 W/m² 0.0 mm 0.026 mm 0.0 km/h
02:05 14.2 °C 9.8 °C 14.2 °C 75% 999.5 hPa 0 W/m² 0.0 mm 0.000 mm 0.0 km/h
02:10 14.2 °C 9.8 °C 14.2 °C 75% 999.6 hPa 0 W/m² 0.0 mm 0.000 mm 0.0 km/h
02:15 14.2 °C 9.8 °C 14.2 °C 75% 999.4 hPa 0 W/m² 0.0 mm 0.000 mm 0.0 km/h
02:20 14.1 °C 9.7 °C 14.1 °C 75% 999.6 hPa 0 W/m² 0.0 mm 0.000 mm 0.0 km/h
02:25 14.1 °C 9.7 °C 14.1 °C 75% 999.4 hPa 0 W/m² 0.0 mm 0.000 mm 0.0 km/h
02:30 14.0 °C 9.8 °C 14.0 °C 76% 999.5 hPa 0 W/m² 0.0 mm 0.000 mm 0.0 km/h
02:35 14.0 °C 9.8 °C 14.0 °C 76% 999.3 hPa 0 W/m² 0.0 mm 0.000 mm 0.0 km/h
02:40 13.9 °C 9.7 °C 13.9 °C 76% 999.2 hPa 0 W/m² 0.0 mm 0.000 mm 0.0 km/h
02:45 13.8 °C 9.6 °C 13.8 °C 76% 999.3 hPa 0 W/m² 0.0 mm 0.000 mm 0.0 km/h
02:50 13.8 °C 9.6 °C 13.8 °C 76% 999.1 hPa 0 W/m² 0.0 mm 0.000 mm 0.0 km/h
02:55 13.8 °C 9.6 °C 13.8 °C 76% 999.0 hPa 0 W/m² 0.0 mm 0.000 mm 0.0 km/h
03:00 13.8 °C 9.6 °C 13.8 °C 76% 999.1 hPa 0 W/m² 0.0 mm 0.025 mm 0.0 km/h
03:05 13.7 °C 9.5 °C 13.7 °C 76% 999.0 hPa 0 W/m² 0.0 mm 0.000 mm 0.0 km/h
03:10 13.6 °C 9.4 °C 13.6 °C 76% 999.3 hPa 0 W/m² 0.0 mm 0.000 mm 0.0 km/h
03:15 13.5 °C 9.5 °C 13.5 °C 77% 999.0 hPa 0 W/m² 0.0 mm 0.000 mm 0.0 km/h
03:20 13.5 °C 9.5 °C 13.5 °C 77% 998.9 hPa 0 W/m² 0.0 mm 0.000 mm 0.0 km/h
03:25 13.4 °C 9.5 °C 13.4 °C 77% 998.9 hPa 0 W/m² 0.0 mm 0.000 mm 0.0 km/h
03:30 13.4 °C 9.5 °C 13.4 °C 77% 998.8 hPa 0 W/m² 0.0 mm 0.000 mm 0.0 km/h
03:35 13.3 °C 9.4 °C 13.3 °C 77% 998.8 hPa 0 W/m² 0.0 mm 0.000 mm 0.0 km/h
03:40 13.3 °C 9.5 °C 13.3 °C 78% 998.8 hPa 0 W/m² 0.0 mm 0.000 mm 0.0 km/h
03:45 13.2 °C 9.4 °C 13.2 °C 78% 998.5 hPa 0 W/m² 0.0 mm 0.000 mm 0.0 km/h
03:50 13.1 °C 9.4 °C 13.1 °C 78% 998.9 hPa 0 W/m² 0.0 mm 0.000 mm 0.0 km/h
03:55 13.1 °C 9.4 °C 13.1 °C 78% 998.6 hPa 0 W/m² 0.0 mm 0.000 mm 0.0 km/h
04:00 12.9 °C 9.3 °C 12.9 °C 79% 998.3 hPa 0 W/m² 0.0 mm 0.026 mm 0.0 km/h
04:05 12.9 °C 9.3 °C 12.9 °C 79% 998.6 hPa 0 W/m² 0.0 mm 0.000 mm 0.0 km/h
04:10 12.8 °C 9.2 °C 12.8 °C 79% 998.5 hPa 0 W/m² 0.0 mm 0.000 mm 0.0 km/h
04:15 12.8 °C 9.2 °C 12.8 °C 79% 998.5 hPa 0 W/m² 0.0 mm 0.000 mm 0.0 km/h
04:20 12.7 °C 9.2 °C 12.7 °C 79% 998.4 hPa 0 W/m² 0.0 mm 0.000 mm 0.0 km/h
04:25 12.7 °C 9.3 °C 12.7 °C 80% 998.4 hPa 0 W/m² 0.0 mm 0.000 mm 0.0 km/h
04:30 12.7 °C 9.3 °C 12.7 °C 80% 998.4 hPa 0 W/m² 0.0 mm 0.000 mm 0.0 km/h
04:35 12.6 °C 9.2 °C 12.6 °C 80% 998.3 hPa 0 W/m² 0.0 mm 0.000 mm 0.0 km/h
04:40 12.6 °C 9.2 °C 12.6 °C 80% 998.4 hPa 0 W/m² 0.0 mm 0.000 mm 0.0 km/h
04:45 12.5 °C 9.1 °C 12.5 °C 80% 998.4 hPa 0 W/m² 0.0 mm 0.000 mm 0.0 km/h
04:50 12.4 °C 9.2 °C 12.4 °C 81% 998.3 hPa 0 W/m² 0.0 mm 0.000 mm 0.0 km/h
04:55 12.4 °C 9.2 °C 12.4 °C 81% 998.1 hPa 0 W/m² 0.0 mm 0.000 mm 0.0 km/h
05:00 12.4 °C 9.2 °C 12.4 °C 81% 998.3 hPa 0 W/m² 0.0 mm 0.025 mm 0.0 km/h
05:05 12.4 °C 9.2 °C 12.4 °C 81% 998.2 hPa 0 W/m² 0.0 mm 0.000 mm 0.0 km/h
05:10 12.4 °C 9.2 °C 12.4 °C 81% 998.0 hPa 0 W/m² 0.0 mm 0.000 mm 0.0 km/h
05:15 12.4 °C 9.2 °C 12.4 °C 81% 998.0 hPa 0 W/m² 0.0 mm 0.000 mm 0.0 km/h
05:20 12.4 °C 9.2 °C 12.4 °C 81% 998.2 hPa 0 W/m² 0.0 mm 0.000 mm 0.0 km/h
05:25 12.4 °C 9.2 °C 12.4 °C 81% 998.1 hPa 0 W/m² 0.0 mm 0.000 mm 0.0 km/h
05:30 12.3 °C 9.1 °C 12.3 °C 81% 998.1 hPa 0 W/m² 0.0 mm 0.000 mm 0.0 km/h
05:35 12.3 °C 9.1 °C 12.3 °C 81% 998.1 hPa 0 W/m² 0.0 mm 0.000 mm 0.0 km/h
05:40 12.3 °C 9.1 °C 12.3 °C 81% 998.0 hPa 0 W/m² 0.0 mm 0.000 mm 0.0 km/h
05:45 12.3 °C 9.1 °C 12.3 °C 81% 998.1 hPa 0 W/m² 0.0 mm 0.000 mm 0.0 km/h
05:50 12.3 °C 9.1 °C 12.3 °C 81% 998.1 hPa 0 W/m² 0.0 mm 0.000 mm 0.0 km/h
05:55 12.3 °C 9.1 °C 12.3 °C 81% 997.9 hPa 0 W/m² 0.0 mm 0.000 mm 0.0 km/h
06:00 12.3 °C 9.1 °C 12.3 °C 81% 997.8 hPa 0 W/m² 0.0 mm 0.025 mm 0.0 km/h
06:05 12.3 °C 9.1 °C 12.3 °C 81% 997.8 hPa 0 W/m² 0.0 mm 0.000 mm 0.0 km/h
06:10 12.3 °C 9.3 °C 12.3 °C 82% 997.9 hPa 0 W/m² 0.0 mm 0.000 mm 0.0 km/h
06:15 12.2 °C 9.2 °C 12.2 °C 82% 997.7 hPa 0 W/m² 0.0 mm 0.000 mm 0.0 km/h
06:20 12.2 °C 9.0 °C 12.2 °C 81% 997.9 hPa 0 W/m² 0.0 mm 0.000 mm 0.0 km/h
06:25 12.1 °C 8.9 °C 12.1 °C 81% 997.4 hPa 0 W/m² 0.0 mm 0.000 mm 0.0 km/h
06:30 12.1 °C 8.9 °C 12.1 °C 81% 997.7 hPa 0 W/m² 0.0 mm 0.000 mm 0.0 km/h
06:35 12.0 °C 8.8 °C 12.0 °C 81% 997.7 hPa 0 W/m² 0.0 mm 0.000 mm 0.0 km/h
06:40 12.0 °C 9.0 °C 12.0 °C 82% 997.5 hPa 0 W/m² 0.0 mm 0.000 mm 0.0 km/h
06:45 11.9 °C 8.9 °C 11.9 °C 82% 997.6 hPa 0 W/m² 0.0 mm 0.000 mm 0.0 km/h
06:50 11.9 °C 9.1 °C 11.9 °C 83% 997.7 hPa 0 W/m² 0.0 mm 0.000 mm 0.0 km/h
06:55 11.9 °C 9.1 °C 11.9 °C 83% 997.6 hPa 3 W/m² 0.0 mm 0.000 mm 0.0 km/h
07:00 11.8 °C 9.0 °C 11.8 °C 83% 997.4 hPa 10 W/m² 0.0 mm 0.000 mm 0.0 km/h
07:05 11.8 °C 9.0 °C 11.8 °C 83% 997.6 hPa 12 W/m² 0.0 mm 0.000 mm 0.0 km/h
07:10 11.8 °C 9.0 °C 11.8 °C 83% 997.6 hPa 10 W/m² 0.0 mm 0.000 mm 0.0 km/h
07:15 11.8 °C 9.2 °C 11.8 °C 84% 997.5 hPa 14 W/m² 0.0 mm 0.000 mm 0.0 km/h
07:20 11.8 °C 9.2 °C 11.8 °C 84% 997.6 hPa 19 W/m² 0.0 mm 0.000 mm 0.0 km/h
07:25 11.8 °C 9.2 °C 11.8 °C 84% 997.7 hPa 20 W/m² 0.0 mm 0.000 mm 0.0 km/h
07:30 11.8 °C 9.2 °C 11.8 °C 84% 997.5 hPa 23 W/m² 0.0 mm 0.000 mm 0.0 km/h
07:35 11.9 °C 9.3 °C 11.9 °C 84% 998.0 hPa 29 W/m² 0.0 mm 0.000 mm 0.0 km/h
07:40 12.0 °C 9.4 °C 12.0 °C 84% 997.5 hPa 36 W/m² 0.0 mm 0.000 mm 0.0 km/h